Weather in Mikhaylovka

Russia / Republic of Tatarstan     55°14′26″N   52°55′47″E
temp.,
°C
wind,
m/s
gust,
m/s
humid.,
%
clouds,
%
prec.,
mm/h
press.,
hPa
HPBL,
m
26 january, tue
tue2600:00−7ssw3894100 0.0 1030168
03:00−4s3993100 0.1 1029479
06:00−3s41092100 0.0 1029386
09:00−5s41193100 0.0 1029280
12:00−2ssw6990100 0.0 1028612
15:00−5s4992100 0.0 1027364
18:00−4s41193100 0.0 1028505
21:00−5ssw51292100 0.0 1027502
27 january, wed
wed2700:00−5ssw51091100 0.1 1028633
03:00−4s61190100 0.1 1028421
06:00−3s61291100 0.0 1027510
09:00−4s61191100 0.0 1027507
12:00−3s6119098 0.0 1027452
15:00−5s5119199 0.0 1026391
18:00−6s61389100 0.0 1026409
21:00−5s61586100 0.0 1025454
28 january, thu
thu2800:00−4ssw61585100 0.0 1024494
03:00−4ssw61586100 0.0 1023476
06:00−5ssw61383100 0.0 1022437
09:00−6ssw71484100 0.0 1022403
12:00−4ssw61386100 0.0 1022456
15:00−5s41089100 0.0 1022363
18:00−8s3791100 0.0 1022156
21:00−9sse3491100 0.0 102172
29 january, fri
fri2900:00−10sse3391100 0.0 102142
03:00−10se2391100 0.0 102027
06:00−11se3390100 0.0 101857
09:00−8se4888100 0.0 1017224
12:00−5se41083100 0.0 1015289
15:00−4ese4886100 0.0 1012199
18:00−5ese51184100 0.0 1010241
21:00−4sse61195100 0.3 1009546
30 january, sat
sat3000:00−4se51293100 0.4 1008509
03:00−4sse5129597 0.6 1008446
06:00−5sse479444 0.1 1009138
09:00−4sse369348 0.1 1010135
12:00−2sse489370 0.0 1011342
15:00−2sse599382 0.0 1011260
18:00−5se489466 0.0 1011181
21:00−5se5119183 0.0 1009225